Location: Powder Track
(41.8531°N, 72.3584°W)
Time: 09:09:13
(UTC+00:00)

Altair - Pass Details

Date: 04 August 2021
Orbit: 1501 x 1682 km, 47.2° (Epoch: 19 September)

Event Time Altitude Azimuth Distance (km) Brightness Sun altitude
Exits shadow 04:43:36 45° 121° (ESE) 2,004 7.8 -30.9°
Drops below altitude 10° 04:51:16 10° 69° (ENE) 3,688 9.7 -31.0°
Sets 04:54:24 0° 64° (ENE) 4,657 10.3 -31.0°
